National Weather Service United States Department of Commerce

Observations from across/near northern Michigan

Marine Observations

Michigan Hourly Observations

 

Yesterday's high, low and precipitation reports from across northern Michigan

Northern Michigan Temperatures and Precipitation

 

Observation Text Products


000
SXUS83 KAPX 280126
OMRAPX

Marine Observations
National Weather Service Gaylord MI
926 PM EDT Mon Mar 27 2017

WIND DATA (KTS) WAVES
SITE DATE/TIME DIR SPEED GUST (FT) SITE NAME
--------------------------------------------------

Lake Superior/St Marys River

GRMM4 280040Z 260 5 6 Grand Marais
WFPM4 280040Z 320 6 9 Whitefish Point
PTIM4 280100Z 280 7 9 Point Iroquois
CYAM 280100Z 290 8 SOO (Canada)
KANJ 280055Z 300 8 Sault Ste Marie
SWPM4 280100Z 270 6 7 S.W. Pier
LTRM4 280100Z 300 7 11 Little Rapids
RCKM4 280100Z 300 4 6 Rock Cut
WNEM4 280100Z 320 3 6 West Nebish Island

Lake Huron

DTLM4 280100Z 300 9 14 DeTour Village
KDRM 280116Z CALM Drummond Island
KMCD 280114Z 330 3 Mackinac Island
MACM4 280100Z 300 4 6 Mackinac City
KSLH 280114Z 290 3 Cheboygan Airport
CYGM4 280055Z CALM Cheboygan Marina
KPZQ 280115Z 320 5 Rogers City
PRIM4 280055Z 320 10 14 Presque Isle Light
KAPN 280054Z 320 5 Alpena Guard Base
APNM4 280110Z 10 5 6 Alpena Harbor Light
TBIM4 280050Z 310 2 5 Thunder Bay Island
SPTM4 280055Z 010 2 3 Sturgeon Point Light
KOSC 280114Z CALM Oscoda
TAWM4 280040Z 40 2 6 Tawas Point
GSLM4 280040Z 50 7 8 Gravelly Shoals
KP58 280051Z 20 3 Port Hope

Lake Michigan

KISQ 280117Z 340 5 Manistique
PNLM4 280100Z 330 7 10 Port Inland
WSLM4 280100Z 330 7 White Shoal Light
KSJX 280116Z 310 4 St James
KPLN 280054Z 290 4 Pellston
KMGN 280115Z CALM Harbor Springs
KCVX 280115Z CALM Charlevoix
GTLM4 280040Z 280 5 7 Grand Traverse Light
KTVC 280053Z 40 3 Traverse City
KFKS 280114Z CALM Frankfort
MEEM4 280040Z 10 8 11 Manistee Harbor
BSBM4 280040Z 10 8 12 Big Sable Point
LDTM4 280100Z 10 6 9 Ludington
KLDM 280114Z 10 3 Ludington Airport


292
ASUS43 KDTX 280210
RWRMI
MICHIGAN HOURLY REGIONAL WEATHER ROUNDUP
NATIONAL WEATHER SERVICE DETROIT/PONTIAC MI
1000 PM EDT MON MAR 27 2017

NOTE: "FAIR" INDICATES FEW OR NO CLOUDS BELOW 12,000 FEET WITH NO
SIGNIFICANT WEATHER AND/OR OBSTRUCTION TO VISIBILITY.

MIZ047>049-052>055-059>063-066>070-074>076-081>083-280300-
SOUTHEAST LOWER MICHIGAN

CITY SKY/WX TMP DP RH WIND PRES REMARKS
ADRIAN CLOUDY 52 50 93 CALM 29.91S
ALMA CLOUDY 46 42 86 N6 29.95R
ANN ARBOR CLOUDY 55 48 77 N8 29.91R
BAD AXE CLOUDY 38 38 99 NE7 29.96R FOG WCI 32
CARO CLOUDY 47 44 91 CALM 29.94R
DETROIT CITY CLOUDY 55 49 80 N5 29.91R
DETROIT CLOUDY 57 49 74 N6 29.91R
FLINT CLOUDY 49 44 83 NW10 29.93R
GROSSE ILE CLOUDY 45 43 92 CALM 29.90S
HILLSDALE CLOUDY 50 46 87 N6 29.90R
HOWELL CLOUDY 50 45 82 N5 29.92R

CITY SKY/WX TMP DP RH WIND PRES REMARKS
JACKSON CLOUDY 52 47 83 N5 29.91S
LAMBERTVILLE CLOUDY 54 49 86 CALM 29.90S
LANSING CLOUDY 49 42 77 N8 29.93R
LAPEER CLOUDY 50 45 81 NW5 29.93R
MASON CLOUDY 49 46 88 N5 29.93R
MONROE CLOUDY 54 51 91 CALM 29.89S
MT. CLEMENS CLOUDY 54 51 89 N8 29.90R
PONTIAC CLOUDY 51 46 83 N5 29.91R
PORT HOPE N/A 36 35 96 CALM 29.95R
PORT HURON CLOUDY 45 41 87 N7 29.94R
TRI CITIES CLOUDY 47 43 86 N9 29.95R
MIDLAND CLOUDY 46 39 77 N5 29.95R
TROY CLOUDY 54 46 75 N6 29.93R
SAGINAW HB CLOUDY 46 43 87 CALM 29.94R
$$
MIZ043>046-050>051-056>058-064>065-071>073-077>080-280300-
SOUTHWEST LOWER MICHIGAN

CITY SKY/WX TMP DP RH WIND PRES REMARKS
BATTLE CREEK CLOUDY 48 45 89 N7 29.93R
BENTON HARBOR CLOUDY 40 35 83 VRB3 29.94R
BIG RAPIDS CLOUDY 40 37 88 N7 29.95R
COLDWATER CLOUDY 51 49 93 N3 29.91R
FREMONT MOCLDY 40 37 88 N5 29.95S
HOLLAND CLOUDY 42 36 79 N3 29.95S
GRAND RAPIDS CLOUDY 47 42 83 N7 29.94R
IONIA CLOUDY 46 40 80 N5 29.93S
KALAMAZOO CLOUDY 48 41 76 N9 29.93R
LUDINGTON CLOUDY 37 35 94 CALM 29.97S
MARSHALL CLOUDY 51 48 90 CALM 29.91S
MOUNT PLEASANT CLOUDY 44 40 83 NW5 29.95R
MUSKEGON CLOUDY 41 35 79 N6 29.96S
SOUTH HAVEN CLOUDY 40 37 89 CALM 29.94S
$$
MIZ016>042-280300-
NORTHERN LOWER MICHIGAN

CITY SKY/WX TMP DP RH WIND PRES REMARKS
ALPENA CLOUDY 38 38 100 NW3 29.97R FOG
BEAVER ISLAND CLOUDY 35 34 95 NW3 29.99S
BELLAIRE CLOUDY 37 35 92 CALM 29.99R
CADILLAC CLOUDY 35 34 96 N3 29.95S
CHARLEVOIX CLOUDY 36 36 100 CALM 30.01S
FRANKFORT CLOUDY 37 34 89 CALM 29.99R
GAYLORD FOG 36 33 89 CALM 29.95S VSB 1/2
GRAYLING CLOUDY 36 34 93 N3 29.96F
HARBOR SPRINGS CLOUDY 33 33 100 CALM 29.98S
HOUGHTON LAKE CLOUDY 37 34 89 NW6 29.96S WCI 32
MANISTEE CLOUDY 38 35 89 N6 29.98S WCI 33
OSCODA CLOUDY 37 37 97 CALM 29.95S FOG
PELLSTON CLOUDY 37 33 85 CALM 29.98R
ROGERS CITY CLOUDY 37 35 93 NW5 29.98S WCI 33
TRAVERSE CITY CLOUDY 38 35 89 CALM 29.98R
$$
MIZ007>008-015-280300-
EASTERN UPPER MICHIGAN

CITY SKY/WX TMP DP RH WIND PRES REMARKS
KINROSS CLOUDY 34 32 92 N9 29.96S WCI 27
MACKINAC ISLAN CLOUDY 35 35 100 NW3 29.97S
NEWBERRY CLOUDY 32 32 99 NW6 29.98R WCI 26
S. S. MARIE CLOUDY 36 32 85 NW7 29.95S WCI 30
MUNISING N/A 33 32 96 NW3 30.00R
$$
MIZ004>006-011>014-085-280300-
CENTRAL UPPER MICHIGAN

CITY SKY/WX TMP DP RH WIND PRES REMARKS
MANISTIQUE CLOUDY 34 32 93 N6 29.98S WCI 29
ESCANABA CLOUDY 36 34 92 CALM 30.00R
MENOMINEE N/A N/A N/A N/A MISG N/A
SAWYER-GWINN CLOUDY 32 32 100 CALM 29.99R
$$
MIZ001>003-009>011-084-280300-
WESTERN UPPER MICHIGAN

CITY SKY/WX TMP DP RH WIND PRES REMARKS
IRON MOUNTAIN CLOUDY 34 31 88 N6 29.98R WCI 29
HOUGHTON PTCLDY 34 30 85 NW8 30.00R WCI 27
COPPER HARBOR N/A 32 31 96 CALM 30.00R
IRONWOOD PTCLDY 34 30 85 CALM 30.02R
$$

ABBREVIATIONS USED IN REMARKS
TC - TEMPERATURE IN CELSIUS
WCI - WIND CHILL INDEX
HX - HEAT INDEX
VSB - VISIBILITY





795
ASUS63 KAPX 280018
RTPAPX

Eastern Upper/Northern Lower Michigan Temperature and Precip Summary
National Weather Service Gaylord MI
818 PM EDT MON MAR 27 2017

18 hour High/Low Temperature ending 8 pm EDT
24 hour Precipitation/Snowfall ending 8 pm EDT
Snow Depth observed at 8 pm EDT

.BR APX 0327 ES DH19/TAIRZS/TAIRZI/PPDRZZ/SFDRZZ/SDIRZZ
:..................................................................
: MAX MIN 24 HR SNOW SNOW
:ID LOCATION TEMP TEMP PRECIP FALL DEPTH
:..................................................................
ANJ : Sault Ste Marie : 40 / 35 / 0.23 / 0.0 / 12
APN : Alpena : 43 / 37 / 0.05 / 0.0 / 0
HTL : Houghton Lake : 43 / 39 / 0.00 / 0.0 / 0
PLN : Pellston : 40 / 35 / 0.02 / /
TVC : Traverse City : 43 / 37 / T / /
GLR : Gaylord : 43 / 36 / 0.00 / /
.END

Cooperative Observations
Temperature/Precipitation/Snowfall values are for 24 hour period
ending 8 pm EDT. Snow Depth is observed at 8 pm EDT.
...................................................................
OBS MAX MIN SNOW SNOW
ID LOCATION TIME TEMP TEMP PCPN FALL DEPTH
...................................................................
MAPM4: Maple City 1E :DH1815/ 44 / 34 / 0.06 / 0.0 / 0.0
ONAM4: Onaway 4N :DH1800/ 39 / 34 / 0.13 / 0.0 / 0.0

These data are preliminary and have not undergone final quality
control by the National Climatic Data Center. Therefore...these
data are subject to revision. Final and certified climate data
can be accessed at www.ncdc.noaa.gov.

&&

The following are supplemental temperature and precipitation data.
This includes data which are received from non-National Weather
Service maintained observing systems...as well as reports from
public weather spotters. Data is only partially quality controlled
and is not suitable for official climatological records.

.BR APX 0327 ES DH19/TAIRZS/TAIRZI
:
:Automated Temperature Data--18 hr High/Low ending 8 pm EDT
:..................................................................
: MAX MIN
:ID LOCATION TEMP TEMP
:..................................................................
:
ERY : Newberry : 36 / 32
CIU : Kinross : 39 / 32
MCD : Mackinac Island : 37 / 32
DRM : Drummond Island : 39 / 32
SJX : Beaver Island : 38 / 33
SLH : Cheboygan : 39 / 32
PZQ : Rogers City : 41 / 36
CVX : Charlevoix : 40 / 34
MGN : Harbor Springs : 38 / 33
ACB : Bellaire : 40 / 35
FKS : Frankfort : 44 / 36
GOV : Grayling AAF : 43 / 37
MBL : Manistee : 45 / 36
CAD : Cadillac : 43 / 37
Y31 : West Branch : 48 / 39
OSC : Oscoda : 49 / 37
LDM : Ludington : 41 / 37
RQB : Big Rapids : 46 / 39
MOP : Mount Pleasant : 48 / 42
IKW : Midland : 50 / 42
.END

U.S. Forest Service Remote Automated Weather Stations (RAWS)
Data is only partially quality controlled
18 hour High/Low Temperature ending 8 pm EDT
Minimum Relative Humidity over past 18 hours
12/24 hour Precipitation ending 8 pm EDT
...................................................................
MAX MIN MIN 12 HR 24 HR
ID LOCATION TEMP TEMP RH PRECIP PRECIP
...................................................................
AGRM4: Alger RAWS : 48 / 42 / 78 / 0.00 / 0.00
ATAM4: Atlanta RAWS : 41 / 36 / 83 / 0.00 / 0.00
BCYM4: Barton City RAWS : 46 / 37 / 96 / 0.02 / 0.03
GYGM4: Grayling RAWS : 41 / 36 / 79 / 0.00 / 0.04
INDM4: Indian River RAWS : 40 / 35 / 89 / 0.02 / 0.04
MMOM4: Mio RAWS : 44 / 37 / 85 / 0.01 / 0.02
MTNM4: Manton RAWS : 45 / 40 / 81 / 0.00 / 0.01
NMIM4: N Manitou Island : 38 / 34 / 85 / 0.00 / 0.01
RACM4: Raco RAWS : 38 / 32 / 90 / 0.01 / 0.14
REXM4: Rexton RAWS : 39 / 32 / 88 / 0.00 / 0.00
RSCM4: Roscommon RAWS : 44 / 39 / M / 0.00 / 0.02
RYDM4: Rudyard RAWS : 40 / 40 / 88 / M / M
SBDM4: The Bear RAWS : 36 / 34 / 98 / 0.00 / 0.03
SCKM4: Silver Creek RAWS : 48 / 37 / 90 / 0.01 / 0.02
WLLM4: Wellston RAWS : 44 / 37 / 84 / 0.00 / 0.03

The following are precipitation reports received by the National
Weather Service in Gaylord...valid for the time period ending
around 8 pm EDT. All reports have been recorded in inches.

Spotter Reports from Eastern Upper and Northern Lower Michigan:

WATER TIME SNOW
LOCATION RAIN SNOW EQUIV PERIOD DEPTH






$$